,,Stat6,,Stat2,,Stat8,,Stat9,,Stat10,,Wind1,,Wind1,
time,status,PA1M_AVG,status,PR1M_SUM,status,RH1M_AVG,status,SR1M_AVG,status,TA1M_AVG,status,W1dAve1m,status,W1sAve1m,
2007-08-29, 00:00:00,VALID,917.582,VALID,0,VALID,100,VALID,-0.0339617,VALID,18.8391,VALID,110,VALID,0.322088,
2007-08-29, 00:01:00,VALID,917.569,VALID,0,VALID,100,VALID,-0.0169808,VALID,18.8296,VALID,110,VALID,0.418576,
2007-08-29, 00:02:00,VALID,917.565,VALID,0,VALID,100,VALID,-0.0509425,VALID,18.8231,VALID,110,VALID,0.469336,
2007-08-29, 00:03:00,VALID,917.572,VALID,0,VALID,100,VALID,-0.0169808,VALID,18.7872,VALID,110,VALID,0.521034,
2007-08-29, 00:04:00,VALID,917.555,VALID,0,VALID,100,VALID,-0.0169808,VALID,18.7775,VALID,109,VALID,0.694741,
2007-08-29, 00:05:00,VALID,917.548,VALID,0,VALID,100,VALID,0,VALID,18.7705,VALID,108,VALID,0.697493,
2007-08-29, 00:06:00,VALID,917.539,VALID,0,VALID,100,VALID,0,VALID,18.7768,VALID,108,VALID,0.506098,
2007-08-29, 00:07:00,VALID,917.544,VALID,0,VALID,100,VALID,-0.0169808,VALID,18.7705,VALID,108,VALID,0.478299,
2007-08-29, 00:08:00,VALID,917.548,VALID,0,VALID,100,VALID,-0.0169808,VALID,18.7708,VALID,108,VALID,0.423549,
2007-08-29, 00:09:00,VALID,917.554,VALID,0,VALID,100,VALID,-0.0339617,VALID,18.7476,VALID,108,VALID,0.273082,
2007-08-29, 00:10:00,VALID,917.552,VALID,0,VALID,100,VALID,0,VALID,18.7578,VALID,108,VALID,0.352951,
2007-08-29, 00:11:00,VALID,917.556,VALID,0,VALID,100,VALID,-0.0169808,VALID,18.7383,VALID,108,VALID,0.25,
2007-08-29, 00:12:00,VALID,917.573,VALID,0,VALID,100,VALID,-0.0169808,VALID,18.7254,VALID,108,VALID,0.17721,
2007-08-29, 00:13:00,VALID,917.576,VALID,0,VALID,100,VALID,-0.0169808,VALID,18.7224,VALID,108,VALID,0.326451,
2007-08-29, 00:14:00,VALID,917.581,VALID,0,VALID,100,VALID,-0.0169808,VALID,18.7124,VALID,108,VALID,0.418324,
2007-08-29, 00:15:00,VALID,917.583,VALID,0,VALID,100,VALID,-0.0339617,VALID,18.7149,VALID,108,VALID,0.493576,
2007-08-29, 00:16:00,VALID,917.584,VALID,0,VALID,100,VALID,0,VALID,18.7379,VALID,108,VALID,0.442224,
2007-08-29, 00:17:00,VALID,917.578,VALID,0,VALID,100,VALID,0.0169808,VALID,18.7409,VALID,107,VALID,0.543308,
2007-08-29, 00:18:00,VALID,917.577,VALID,0,VALID,100,VALID,0,VALID,18.7182,VALID,101,VALID,0.689583,
2007-08-29, 00:19:00,VALID,917.576,VALID,0,VALID,100,VALID,-0.0339617,VALID,18.6992,VALID,76,VALID,0.803385,
2007-08-29, 00:20:00,VALID,917.58,VALID,0,VALID,100,VALID,-0.0339617,VALID,18.7154,VALID,58,VALID,0.95846,
2007-08-29, 00:21:00,VALID,917.584,VALID,0,VALID,100,VALID,-0.0339617,VALID,18.7316,VALID,50,VALID,0.986281,
2007-08-29, 00:22:00,VALID,917.583,VALID,0,VALID,100,VALID,0,VALID,18.7247,VALID,50,VALID,0.787574,
2007-08-29, 00:23:00,VALID,917.589,VALID,0,VALID,100,VALID,-0.0169808,VALID,18.7281,VALID,50,VALID,0.666969,
2007-08-29, 00:24:00,VALID,917.594,VALID,0,VALID,100,VALID,-0.0509425,VALID,18.7513,VALID,50,VALID,0.467297,
2007-08-29, 00:25:00,VALID,917.582,VALID,0,VALID,100,VALID,0,VALID,18.7474,VALID,50,VALID,0.0225074,
2007-08-29, 00:26:00,VALID,917.582,VALID,0,VALID,100,VALID,-0.0169808,VALID,18.7743,VALID,50,VALID,0.0557292,
2007-08-29, 00:27:00,VALID,917.567,VALID,0,VALID,100,VALID,-0.0169808,VALID,18.761,VALID,50,VALID,0,
2007-08-29, 00:28:00,VALID,917.574,VALID,0,VALID,100,VALID,-0.0169808,VALID,18.7606,VALID,50,VALID,0,
2007-08-29, 00:29:00,VALID,917.564,VALID,0,VALID,100,VALID,-0.0339617,VALID,18.7645,VALID,50,VALID,0.00133384,
2007-08-29, 00:30:00,VALID,917.538,VALID,0,VALID,100,VALID,0,VALID,18.7543,VALID,50,VALID,0.0119913,
2007-08-29, 00:31:00,VALID,917.527,VALID,0,VALID,100,VALID,-0.0169808,VALID,18.758,VALID,50,VALID,0.293857,
2007-08-29, 00:32:00,VALID,917.514,VALID,0,VALID,100,VALID,-0.0169808,VALID,18.7344,VALID,62,VALID,0.458079,
2007-08-29, 00:33:00,VALID,917.498,VALID,0,VALID,100,VALID,0,VALID,18.7349,VALID,67,VALID,0.530649,
2007-08-29, 00:34:00,VALID,917.48,VALID,0,VALID,100,VALID,0.0169808,VALID,18.7411,VALID,67,VALID,0.560138,
2007-08-29, 00:35:00,VALID,917.459,VALID,0,VALID,100,VALID,-0.0169808,VALID,18.7478,VALID,71,VALID,0.533854,
2007-08-29, 00:36:00,VALID,917.446,VALID,0,VALID,100,VALID,0.0339617,VALID,18.7538,VALID,71,VALID,0.386719,
2007-08-29, 00:37:00,VALID,917.438,VALID,0,VALID,100,VALID,0.101885,VALID,18.7589,VALID,71,VALID,0.355824,
2007-08-29, 00:38:00,VALID,917.417,VALID,0,VALID,100,VALID,0.0679233,VALID,18.7823,VALID,71,VALID,0.321733,
2007-08-29, 00:39:00,VALID,917.408,VALID,0,VALID,100,VALID,0.0849042,VALID,18.7788,VALID,71,VALID,0.449033,
2007-08-29, 00:40:00,VALID,917.391,VALID,0,VALID,100,VALID,0.118866,VALID,18.7918,VALID,71,VALID,0.532366,
2007-08-29, 00:41:00,VALID,917.381,VALID,0,VALID,100,VALID,0.0509425,VALID,18.805,VALID,71,VALID,0.404797,
2007-08-29, 00:42:00,VALID,917.376,VALID,0,VALID,100,VALID,0.101885,VALID,18.8113,VALID,71,VALID,0.324695,
2007-08-29, 00:43:00,VALID,917.366,VALID,0,VALID,100,VALID,0.0849042,VALID,18.8113,VALID,71,VALID,0.0850291,
2007-08-29, 00:44:00,VALID,917.351,VALID,0,VALID,100,VALID,0.101885,VALID,18.808,VALID,71,VALID,0,
2007-08-29, 00:45:00,VALID,917.359,VALID,0,VALID,100,VALID,0.101885,VALID,18.7916,VALID,71,VALID,0.00109012,
2007-08-29, 00:46:00,VALID,917.352,VALID,0,VALID,100,VALID,0.0849042,VALID,18.7816,VALID,71,VALID,0.00334821,
2007-08-29, 00:47:00,VALID,917.352,VALID,0,VALID,100,VALID,0.0679233,VALID,18.7786,VALID,71,VALID,0.0374273,
2007-08-29, 00:48:00,VALID,917.343,VALID,0,VALID,100,VALID,0.101885,VALID,18.7788,VALID,71,VALID,0.319727,
2007-08-29, 00:49:00,VALID,917.346,VALID,0,VALID,100,VALID,0.0679233,VALID,18.7786,VALID,71,VALID,0.381793,
2007-08-29, 00:50:00,VALID,917.351,VALID,0,VALID,100,VALID,0.101885,VALID,18.7786,VALID,72,VALID,0.340402,
2007-08-29, 00:51:00,VALID,917.356,VALID,0,VALID,100,VALID,0.0509425,VALID,18.7758,VALID,73,VALID,0.311914,
2007-08-29, 00:52:00,VALID,917.352,VALID,0,VALID,100,VALID,-0.0169808,VALID,18.7803,VALID,73,VALID,0.375,
2007-08-29, 00:53:00,VALID,917.345,VALID,0,VALID,100,VALID,-0.101885,VALID,18.7965,VALID,73,VALID,0.252734,
2007-08-29, 00:54:00,VALID,917.334,VALID,0,VALID,100,VALID,-0.0169808,VALID,18.8162,VALID,73,VALID,0.00545058,
2007-08-29, 00:55:00,VALID,917.323,VALID,0,VALID,100,VALID,-0.0169808,VALID,18.8227,VALID,73,VALID,0,
2007-08-29, 00:56:00,VALID,917.307,VALID,0,VALID,100,VALID,0,VALID,18.8229,VALID,73,VALID,0.00372024,
2007-08-29, 00:57:00,VALID,917.274,VALID,0,VALID,100,VALID,-0.0509425,VALID,18.8134,VALID,73,VALID,0.299653,
2007-08-29, 00:58:00,VALID,917.267,VALID,0,VALID,100,VALID,-0.0849042,VALID,18.8,VALID,78,VALID,0.629836,
2007-08-29, 00:59:00,VALID,917.241,VALID,0,VALID,100,VALID,-0.0509425,VALID,18.7967,VALID,81,VALID,0.713356,
2007-08-29, 01:00:00,VALID,917.229,VALID,0,VALID,100,VALID,-0.0679233,VALID,18.8067,VALID,85,VALID,0.513368,
2007-08-29, 01:01:00,VALID,917.204,VALID,0,VALID,100,VALID,-0.0169808,VALID,18.803,VALID,85,VALID,0.488839,
2007-08-29, 01:02:00,VALID,917.189,VALID,0,VALID,100,VALID,-0.0339617,VALID,18.809,VALID,117,VALID,0.82049,
2007-08-29, 01:03:00,VALID,917.187,VALID,0,VALID,100,VALID,-0.0509425,VALID,18.8287,VALID,146,VALID,0.930069,
2007-08-29, 01:04:00,VALID,917.169,VALID,0,VALID,100,VALID,-0.0169808,VALID,18.8808,VALID,147,VALID,0.646763,
2007-08-29, 01:05:00,VALID,917.163,VALID,0,VALID,100,VALID,-0.0339617,VALID,18.8838,VALID,147,VALID,0.616235,
2007-08-29, 01:06:00,VALID,917.177,VALID,0,VALID,100,VALID,-0.0509425,VALID,18.8808,VALID,169,VALID,0.728795,
2007-08-29, 01:07:00,VALID,917.173,VALID,0,VALID,100,VALID,-0.0169808,VALID,18.8875,VALID,172,VALID,0.842115,
2007-08-29, 01:08:00,VALID,917.184,VALID,0,VALID,100,VALID,-0.0169808,VALID,18.897,VALID,179,VALID,0.720796,
2007-08-29, 01:09:00,VALID,917.199,VALID,0,VALID,100,VALID,-0.0509425,VALID,18.8908,VALID,175,VALID,0.847747,
2007-08-29, 01:10:00,VALID,917.208,VALID,0,VALID,100,VALID,-0.0679233,VALID,18.8908,VALID,170,VALID,0.595881,
2007-08-29, 01:11:00,VALID,917.205,VALID,0,VALID,100,VALID,-0.0679233,VALID,18.8838,VALID,168,VALID,0.545945,
2007-08-29, 01:12:00,VALID,917.21,VALID,0,VALID,100,VALID,-0.0679233,VALID,18.8878,VALID,164,VALID,0.704687,
2007-08-29, 01:13:00,VALID,917.219,VALID,0,VALID,100,VALID,-0.0849042,VALID,18.9075,VALID,163,VALID,0.405469,
2007-08-29, 01:14:00,VALID,917.21,VALID,0,VALID,100,VALID,-0.101885,VALID,18.8838,VALID,165,VALID,0.565662,
2007-08-29, 01:15:00,VALID,917.191,VALID,0,VALID,100,VALID,-0.0339617,VALID,18.9008,VALID,164,VALID,0.403587,
2007-08-29, 01:16:00,VALID,917.176,VALID,0,VALID,100,VALID,-0.0509425,VALID,18.9202,VALID,151,VALID,0.365625,
2007-08-29, 01:17:00,VALID,917.17,VALID,0,VALID,100,VALID,-0.0849042,VALID,18.9137,VALID,144,VALID,0.471168,
2007-08-29, 01:18:00,VALID,917.163,VALID,0,VALID,100,VALID,-0.0679233,VALID,18.9369,VALID,144,VALID,0.328658,
2007-08-29, 01:19:00,VALID,917.148,VALID,0,VALID,100,VALID,-0.0509425,VALID,18.9404,VALID,144,VALID,0.19931,
2007-08-29, 01:20:00,VALID,917.126,VALID,0,VALID,100,VALID,-0.0509425,VALID,18.9332,VALID,144,VALID,0.0982921,
2007-08-29, 01:21:00,VALID,917.122,VALID,0,VALID,100,VALID,-0.0339617,VALID,18.939,VALID,144,VALID,0.332667,
2007-08-29, 01:22:00,VALID,917.101,VALID,0,VALID,100,VALID,0.0339617,VALID,18.9417,VALID,144,VALID,0.413876,
2007-08-29, 01:23:00,VALID,917.094,VALID,0,VALID,100,VALID,0.0509425,VALID,18.9515,VALID,144,VALID,0.241386,
2007-08-29, 01:24:00,VALID,917.094,VALID,0,VALID,100,VALID,0.0339617,VALID,18.9512,VALID,144,VALID,0.512536,
2007-08-29, 01:25:00,VALID,917.093,VALID,0,VALID,100,VALID,0.0679233,VALID,18.945,VALID,144,VALID,0.573765,
2007-08-29, 01:26:00,VALID,917.09,VALID,0,VALID,100,VALID,0.0849042,VALID,18.942,VALID,144,VALID,0.712891,
2007-08-29, 01:27:00,VALID,917.091,VALID,0,VALID,100,VALID,0.0509425,VALID,18.9313,VALID,143,VALID,0.879607,
2007-08-29, 01:28:00,VALID,917.096,VALID,0,VALID,100,VALID,0.0509425,VALID,18.9408,VALID,143,VALID,0.854567,
2007-08-29, 01:29:00,VALID,917.106,VALID,0,VALID,100,VALID,0.0509425,VALID,18.9375,VALID,133,VALID,0.82976,
2007-08-29, 01:30:00,VALID,917.096,VALID,0,VALID,100,VALID,0.0679233,VALID,18.9348,VALID,129,VALID,0.901042,
2007-08-29, 01:31:00,VALID,917.093,VALID,0,VALID,100,VALID,0.0679233,VALID,18.9283,VALID,129,VALID,0.899771,
2007-08-29, 01:32:00,VALID,917.101,VALID,0,VALID,100,VALID,0.0849042,VALID,18.9118,VALID,129,VALID,0.779576,
2007-08-29, 01:33:00,VALID,917.098,VALID,0,VALID,100,VALID,0.0339617,VALID,18.919,VALID,129,VALID,0.744284,
2007-08-29, 01:34:00,VALID,917.084,VALID,0,VALID,100,VALID,0.0339617,VALID,18.9288,VALID,143,VALID,0.687855,
2007-08-29, 01:35:00,VALID,917.065,VALID,0,VALID,100,VALID,0.0509425,VALID,18.9348,VALID,158,VALID,0.87407,
2007-08-29, 01:36:00,VALID,917.053,VALID,0,VALID,100,VALID,0.0679233,VALID,18.9313,VALID,157,VALID,0.933408,
2007-08-29, 01:37:00,VALID,917.036,VALID,0,VALID,100,VALID,-0.0679233,VALID,18.9297,VALID,157,VALID,0.653888,
2007-08-29, 01:38:00,VALID,917.028,VALID,0,VALID,100,VALID,-0.0679233,VALID,18.9427,VALID,157,VALID,0.546697,
2007-08-29, 01:39:00,VALID,917.011,VALID,0,VALID,100,VALID,-0.101885,VALID,18.9494,VALID,152,VALID,0.565104,
2007-08-29, 01:40:00,VALID,917.026,VALID,0,VALID,100,VALID,-0.0679233,VALID,18.9624,VALID,141,VALID,0.687309,
2007-08-29, 01:41:00,VALID,917.003,VALID,0,VALID,100,VALID,-0.0509425,VALID,18.9629,VALID,135,VALID,0.567116,
2007-08-29, 01:42:00,VALID,916.991,VALID,0,VALID,100,VALID,-0.101885,VALID,18.9529,VALID,133,VALID,0.603198,
2007-08-29, 01:43:00,VALID,916.989,VALID,0,VALID,100,VALID,-0.0849042,VALID,18.9529,VALID,146,VALID,0.697115,
2007-08-29, 01:44:00,VALID,916.985,VALID,0,VALID,100,VALID,-0.0679233,VALID,18.9424,VALID,155,VALID,0.710029,
2007-08-29, 01:45:00,VALID,916.955,VALID,0,VALID,100,VALID,-0.0339617,VALID,18.9527,VALID,154,VALID,0.52611,
2007-08-29, 01:46:00,VALID,916.945,VALID,0,VALID,100,VALID,-0.0679233,VALID,18.9492,VALID,140,VALID,0.722317,
2007-08-29, 01:47:00,VALID,916.918,VALID,0,VALID,100,VALID,-0.0509425,VALID,18.9357,VALID,131,VALID,0.540551,
2007-08-29, 01:48:00,VALID,916.896,VALID,0,VALID,100,VALID,-0.0849042,VALID,18.9691,VALID,124,VALID,0.654762,
2007-08-29, 01:49:00,VALID,916.88,VALID,0,VALID,100,VALID,-0.0849042,VALID,18.9788,VALID,113,VALID,0.660156,
2007-08-29, 01:50:00,VALID,916.858,VALID,0,VALID,100,VALID,-0.0849042,VALID,18.9916,VALID,111,VALID,0.2859,
2007-08-29, 01:51:00,VALID,916.849,VALID,0,VALID,100,VALID,-0.101885,VALID,18.9916,VALID,111,VALID,0.0534157,
2007-08-29, 01:52:00,VALID,916.824,VALID,0,VALID,100,VALID,-0.0849042,VALID,18.9921,VALID,111,VALID,0.0894717,
2007-08-29, 01:53:00,VALID,916.818,VALID,0,VALID,100,VALID,-0.0169808,VALID,18.9744,VALID,111,VALID,0.000571646,
2007-08-29, 01:54:00,VALID,916.815,VALID,0,VALID,100,VALID,-0.0169808,VALID,18.9916,VALID,111,VALID,0.000381098,
2007-08-29, 01:55:00,VALID,916.807,VALID,0,VALID,100,VALID,0,VALID,18.9849,VALID,111,VALID,0,
2007-08-29, 01:56:00,VALID,916.805,VALID,0,VALID,100,VALID,-0.0509425,VALID,18.9983,VALID,111,VALID,0.0377907,
2007-08-29, 01:57:00,VALID,916.793,VALID,0,VALID,100,VALID,0,VALID,18.9986,VALID,111,VALID,0.255952,
2007-08-29, 01:58:00,VALID,916.792,VALID,0,VALID,100,VALID,-0.0339617,VALID,18.9951,VALID,111,VALID,0.207031,
2007-08-29, 01:59:00,VALID,916.781,VALID,0,VALID,100,VALID,-0.0509425,VALID,18.9853,VALID,115,VALID,0.307422,
2007-08-29, 02:00:00,VALID,916.767,VALID,0,VALID,100,VALID,-0.0169808,VALID,18.9983,VALID,117,VALID,0.105556,
2007-08-29, 02:01:00,VALID,916.764,VALID,0,VALID,100,VALID,-0.0169808,VALID,19.0013,VALID,117,VALID,0.405705,
2007-08-29, 02:02:00,VALID,916.753,VALID,0,VALID,100,VALID,-0.0339617,VALID,18.9849,VALID,117,VALID,0.351207,
2007-08-29, 02:03:00,VALID,916.745,VALID,0,VALID,100,VALID,-0.0339617,VALID,18.9758,VALID,117,VALID,0.410689,
2007-08-29, 02:04:00,VALID,916.733,VALID,0,VALID,100,VALID,-0.0339617,VALID,18.9459,VALID,117,VALID,0.435865,
2007-08-29, 02:05:00,VALID,916.732,VALID,0,VALID,100,VALID,-0.0169808,VALID,18.9235,VALID,117,VALID,0.420922,
2007-08-29, 02:06:00,VALID,916.72,VALID,0,VALID,100,VALID,0,VALID,18.9332,VALID,117,VALID,0.44779,
2007-08-29, 02:07:00,VALID,916.719,VALID,0,VALID,100,VALID,-0.0679233,VALID,18.92,VALID,117,VALID,0.135975,
2007-08-29, 02:08:00,VALID,916.699,VALID,0,VALID,100,VALID,-0.0169808,VALID,18.9008,VALID,117,VALID,0,
2007-08-29, 02:09:00,VALID,916.693,VALID,0,VALID,100,VALID,-0.0339617,VALID,18.8811,VALID,117,VALID,0,
2007-08-29, 02:10:00,VALID,916.682,VALID,0,VALID,100,VALID,-0.0339617,VALID,18.8708,VALID,117,VALID,0,
2007-08-29, 02:11:00,VALID,916.658,VALID,0,VALID,100,VALID,-0.0509425,VALID,18.8683,VALID,117,VALID,0.233041,
2007-08-29, 02:12:00,VALID,916.647,VALID,0,VALID,100,VALID,-0.0679233,VALID,18.8417,VALID,117,VALID,0.190727,
2007-08-29, 02:13:00,VALID,916.637,VALID,0,VALID,100,VALID,-0.0169808,VALID,18.8451,VALID,117,VALID,0.0673363,
2007-08-29, 02:14:00,VALID,916.621,VALID,0,VALID,100,VALID,0,VALID,18.8419,VALID,117,VALID,0,
2007-08-29, 02:15:00,VALID,916.609,VALID,0,VALID,100,VALID,-0.0509425,VALID,18.8352,VALID,117,VALID,0,
2007-08-29, 02:16:00,VALID,916.596,VALID,0,VALID,100,VALID,-0.0339617,VALID,18.8389,VALID,117,VALID,0,
2007-08-29, 02:17:00,VALID,916.579,VALID,0,VALID,100,VALID,-0.0339617,VALID,18.8489,VALID,117,VALID,0,
2007-08-29, 02:18:00,VALID,916.561,VALID,0,VALID,100,VALID,-0.0169808,VALID,18.8549,VALID,117,VALID,0,
2007-08-29, 02:19:00,VALID,916.55,VALID,0,VALID,100,VALID,0,VALID,18.8516,VALID,117,VALID,0,
2007-08-29, 02:20:00,VALID,916.551,VALID,0,VALID,100,VALID,-0.0339617,VALID,18.8681,VALID,117,VALID,0,
2007-08-29, 02:21:00,VALID,916.55,VALID,0,VALID,100,VALID,0,VALID,18.8581,VALID,117,VALID,0,
2007-08-29, 02:22:00,VALID,916.539,VALID,0,VALID,100,VALID,-0.0339617,VALID,18.8514,VALID,117,VALID,0,
2007-08-29, 02:23:00,VALID,916.532,VALID,0,VALID,100,VALID,-0.0169808,VALID,18.8521,VALID,117,VALID,0,
2007-08-29, 02:24:00,VALID,916.527,VALID,0,VALID,100,VALID,-0.0509425,VALID,18.8389,VALID,117,VALID,0,
2007-08-29, 02:25:00,VALID,916.52,VALID,0,VALID,100,VALID,0,VALID,18.8292,VALID,117,VALID,0,
2007-08-29, 02:26:00,VALID,916.515,VALID,0,VALID,100,VALID,0,VALID,18.8127,VALID,117,VALID,0,
2007-08-29, 02:27:00,VALID,916.51,VALID,0,VALID,100,VALID,-0.0509425,VALID,18.7995,VALID,117,VALID,0.000372024,
2007-08-29, 02:28:00,VALID,916.509,VALID,0,VALID,100,VALID,0,VALID,18.8132,VALID,117,VALID,0.0887277,
2007-08-29, 02:29:00,VALID,916.501,VALID,0,VALID,100,VALID,-0.0339617,VALID,18.8264,VALID,117,VALID,0.00090843,
2007-08-29, 02:30:00,VALID,916.493,VALID,0,VALID,100,VALID,0.0169808,VALID,18.8417,VALID,117,VALID,0.24721,
2007-08-29, 02:31:00,VALID,916.484,VALID,0,VALID,100,VALID,-0.0339617,VALID,18.8449,VALID,117,VALID,0.047433,
2007-08-29, 02:32:00,VALID,916.477,VALID,0,VALID,100,VALID,-0.0169808,VALID,18.8651,VALID,117,VALID,0,
2007-08-29, 02:33:00,VALID,916.461,VALID,0,VALID,100,VALID,-0.0509425,VALID,18.8678,VALID,117,VALID,0,
2007-08-29, 02:34:00,VALID,916.457,VALID,0,VALID,100,VALID,-0.0339617,VALID,18.8676,VALID,117,VALID,0.137355,
2007-08-29, 02:35:00,VALID,916.432,VALID,0,VALID,100,VALID,-0.0169808,VALID,18.8484,VALID,117,VALID,0.195313,
2007-08-29, 02:36:00,VALID,916.426,VALID,0,VALID,100,VALID,-0.0339617,VALID,18.8581,VALID,117,VALID,0.0466974,
2007-08-29, 02:37:00,VALID,916.408,VALID,0,VALID,100,VALID,0.0849042,VALID,18.847,VALID,117,VALID,0,
2007-08-29, 02:38:00,VALID,916.4,VALID,0,VALID,100,VALID,0.101885,VALID,18.8337,VALID,117,VALID,0,
2007-08-29, 02:39:00,VALID,916.387,VALID,0,VALID,100,VALID,0.0849042,VALID,18.8337,VALID,117,VALID,0,
2007-08-29, 02:40:00,VALID,916.381,VALID,0,VALID,100,VALID,0.0849042,VALID,18.834,VALID,117,VALID,0,
2007-08-29, 02:41:00,VALID,916.367,VALID,0,VALID,100,VALID,0.0849042,VALID,18.8078,VALID,117,VALID,0,
2007-08-29, 02:42:00,VALID,916.346,VALID,0,VALID,100,VALID,0.0849042,VALID,18.7851,VALID,117,VALID,0,
2007-08-29, 02:43:00,VALID,916.33,VALID,0,VALID,100,VALID,0.101885,VALID,18.7761,VALID,117,VALID,0,
2007-08-29, 02:44:00,VALID,916.318,VALID,0,VALID,100,VALID,0.101885,VALID,18.7761,VALID,117,VALID,0,
2007-08-29, 02:45:01,VALID,916.311,VALID,0,VALID,100,VALID,0.118866,VALID,18.7524,VALID,117,VALID,0,
2007-08-29, 02:46:00,VALID,916.308,VALID,0,VALID,100,VALID,0.118866,VALID,18.7167,VALID,117,VALID,0,
2007-08-29, 02:47:00,VALID,916.3,VALID,0,VALID,100,VALID,0.0849042,VALID,18.6975,VALID,117,VALID,0.0948661,
2007-08-29, 02:48:00,VALID,916.302,VALID,0,VALID,100,VALID,0.0679233,VALID,18.6716,VALID,117,VALID,0.00285823,
2007-08-29, 02:49:00,VALID,916.304,VALID,0,VALID,100,VALID,0.0849042,VALID,18.6753,VALID,117,VALID,0,
2007-08-29, 02:50:01,VALID,916.299,VALID,0,VALID,100,VALID,0.0849042,VALID,18.6649,VALID,117,VALID,0,
2007-08-29, 02:51:00,VALID,916.294,VALID,0,VALID,100,VALID,0.0849042,VALID,18.6653,VALID,117,VALID,0,
2007-08-29, 02:52:00,VALID,916.301,VALID,0,VALID,100,VALID,-0.0679233,VALID,18.6677,VALID,117,VALID,0,
2007-08-29, 02:53:00,VALID,916.297,VALID,0,VALID,100,VALID,-0.0509425,VALID,18.6545,VALID,117,VALID,0,
2007-08-29, 02:54:00,VALID,916.301,VALID,0,VALID,100,VALID,-0.0679233,VALID,18.6547,VALID,117,VALID,0,
2007-08-29, 02:55:00,VALID,916.291,VALID,0,VALID,100,VALID,-0.0679233,VALID,18.648,VALID,117,VALID,0,
2007-08-29, 02:56:00,VALID,916.293,VALID,0,VALID,100,VALID,-0.0509425,VALID,18.6413,VALID,117,VALID,0,
2007-08-29, 02:57:00,VALID,916.295,VALID,0,VALID,100,VALID,-0.0679233,VALID,18.661,VALID,117,VALID,0,
2007-08-29, 02:58:00,VALID,916.28,VALID,0,VALID,100,VALID,-0.0339617,VALID,18.6702,VALID,117,VALID,0,
2007-08-29, 02:59:00,VALID,916.283,VALID,0,VALID,100,VALID,-0.0679233,VALID,18.6575,VALID,117,VALID,0,
2007-08-29, 03:00:00,VALID,916.278,VALID,0,VALID,100,VALID,-0.0169808,VALID,18.6285,VALID,117,VALID,0,
2007-08-29, 03:01:01,VALID,916.254,VALID,0,VALID,100,VALID,-0.0339617,VALID,18.6118,VALID,117,VALID,0,
2007-08-29, 03:02:00,VALID,916.232,VALID,0,VALID,100,VALID,-0.0509425,VALID,18.6026,VALID,117,VALID,0,
2007-08-29, 03:03:00,VALID,916.218,VALID,0,VALID,100,VALID,-0.0679233,VALID,18.5993,VALID,117,VALID,0,
2007-08-29, 03:04:00,VALID,916.193,VALID,0,VALID,100,VALID,-0.0339617,VALID,18.5991,VALID,117,VALID,0,
2007-08-29, 03:05:00,VALID,916.19,VALID,0,VALID,100,VALID,-0.0679233,VALID,18.6028,VALID,117,VALID,0,
2007-08-29, 03:06:00,VALID,916.197,VALID,0,VALID,100,VALID,-0.0679233,VALID,18.6093,VALID,117,VALID,0,
2007-08-29, 03:07:00,VALID,916.204,VALID,0,VALID,100,VALID,-0.0509425,VALID,18.6121,VALID,117,VALID,0,
2007-08-29, 03:08:01,VALID,916.19,VALID,0,VALID,100,VALID,-0.0339617,VALID,18.6058,VALID,117,VALID,0,
2007-08-29, 03:09:00,VALID,916.186,VALID,0,VALID,100,VALID,-0.0509425,VALID,18.5963,VALID,117,VALID,0,
2007-08-29, 03:10:00,VALID,916.189,VALID,0,VALID,100,VALID,-0.0849042,VALID,18.5898,VALID,117,VALID,0,
2007-08-29, 03:11:00,VALID,916.196,VALID,0,VALID,100,VALID,-0.0849042,VALID,18.5669,VALID,117,VALID,0,
2007-08-29, 03:12:01,VALID,916.194,VALID,0,VALID,100,VALID,0,VALID,18.5442,VALID,117,VALID,0,
2007-08-29, 03:13:00,VALID,916.203,VALID,0,VALID,100,VALID,-0.0679233,VALID,18.5282,VALID,117,VALID,0,
2007-08-29, 03:14:00,VALID,916.212,VALID,0,VALID,100,VALID,-0.0339617,VALID,18.4986,VALID,117,VALID,0,
2007-08-29, 03:15:00,VALID,916.214,VALID,0,VALID,100,VALID,-0.0509425,VALID,18.4953,VALID,117,VALID,0,
2007-08-29, 03:16:00,VALID,916.231,VALID,0,VALID,100,VALID,-0.0679233,VALID,18.4891,VALID,117,VALID,0,
2007-08-29, 03:17:00,VALID,916.234,VALID,0,VALID,100,VALID,-0.0509425,VALID,18.4891,VALID,117,VALID,0.0394531,
2007-08-29, 03:18:00,VALID,916.241,VALID,0,VALID,100,VALID,-0.101885,VALID,18.4988,VALID,117,VALID,0.298781,
2007-08-29, 03:19:01,VALID,916.249,VALID,0,VALID,100,VALID,-0.0849042,VALID,18.5148,VALID,117,VALID,0.369913,
2007-08-29, 03:20:00,VALID,916.257,VALID,0,VALID,100,VALID,-0.0849042,VALID,18.5312,VALID,117,VALID,0.267045,
2007-08-29, 03:21:00,VALID,916.271,VALID,0,VALID,100,VALID,-0.0849042,VALID,18.4823,VALID,117,VALID,0.0896484,
2007-08-29, 03:22:00,VALID,916.271,VALID,0,VALID,100,VALID,-0.0849042,VALID,18.4402,VALID,117,VALID,0,
2007-08-29, 03:23:00,VALID,916.272,VALID,0,VALID,100,VALID,-0.0509425,VALID,18.4077,VALID,117,VALID,0,
2007-08-29, 03:24:00,VALID,916.275,VALID,0,VALID,100,VALID,-0.0679233,VALID,18.3883,VALID,117,VALID,0,
2007-08-29, 03:25:00,VALID,916.268,VALID,0,VALID,100,VALID,-0.101885,VALID,18.4112,VALID,117,VALID,0,
2007-08-29, 03:26:01,VALID,916.263,VALID,0,VALID,100,VALID,-0.101885,VALID,18.4309,VALID,117,VALID,0,
2007-08-29, 03:27:01,VALID,916.265,VALID,0,VALID,100,VALID,-0.0509425,VALID,18.4404,VALID,117,VALID,0,
2007-08-29, 03:28:00,VALID,916.257,VALID,0,VALID,100,VALID,-0.0339617,VALID,18.4434,VALID,117,VALID,0,
2007-08-29, 03:29:01,VALID,916.261,VALID,0,VALID,100,VALID,-0.0679233,VALID,18.4629,VALID,117,VALID,0.015067,
2007-08-29, 03:30:00,VALID,916.27,VALID,0,VALID,100,VALID,-0.0509425,VALID,18.4694,VALID,117,VALID,0.0922619,
2007-08-29, 03:31:01,VALID,916.273,VALID,0,VALID,100,VALID,-0.0339617,VALID,18.4761,VALID,117,VALID,0,
2007-08-29, 03:32:00,VALID,916.282,VALID,0,VALID,100,VALID,-0.0679233,VALID,18.4791,VALID,117,VALID,0,
2007-08-29, 03:33:00,VALID,916.282,VALID,0,VALID,100,VALID,-0.0849042,VALID,18.4629,VALID,117,VALID,0,
2007-08-29, 03:34:01,VALID,916.298,VALID,0,VALID,100,VALID,-0.0339617,VALID,18.4696,VALID,117,VALID,0,
2007-08-29, 03:35:01,VALID,916.301,VALID,0,VALID,100,VALID,-0.0169808,VALID,18.4823,VALID,117,VALID,0,
2007-08-29, 03:36:01,VALID,916.302,VALID,0,VALID,100,VALID,-0.0169808,VALID,18.4754,VALID,117,VALID,0,
2007-08-29, 03:37:00,VALID,916.324,VALID,0,VALID,100,VALID,-0.0169808,VALID,18.4589,VALID,117,VALID,0,
2007-08-29, 03:38:00,VALID,916.338,VALID,0,VALID,100,VALID,0,VALID,18.3969,VALID,117,VALID,0,
2007-08-29, 03:39:01,VALID,916.329,VALID,0,VALID,100,VALID,-0.0339617,VALID,18.3709,VALID,117,VALID,0.225818,
2007-08-29, 03:40:01,VALID,916.326,VALID,0,VALID,100,VALID,-0.0169808,VALID,18.4717,VALID,117,VALID,0.910247,
2007-08-29, 03:41:01,VALID,916.321,VALID,0,VALID,100,VALID,-0.0339617,VALID,18.5497,VALID,117,VALID,0.739702,
2007-08-29, 03:42:01,VALID,916.319,VALID,0,VALID,100,VALID,-0.0169808,VALID,18.5822,VALID,117,VALID,0.476381,
2007-08-29, 03:43:01,VALID,916.291,VALID,0,VALID,100,VALID,0,VALID,18.5884,VALID,117,VALID,0.450149,